TimePDT,TemperatureF,Dew PointF,Humidity,Sea Level PressureIn,VisibilityMPH,Wind Direction,Wind SpeedMPH,Gust SpeedMPH,PrecipitationIn,Events,Conditions,WindDirDegrees,DateUTC
12:53 AM,62.1,57.9,86,29.75,10.0,SW,15.0,-,0.00,,Overcast,230,2012-10-16 07:53:00
1:53 AM,60.1,53.1,78,29.79,10.0,West,15.0,-,0.01,,Clear,280,2012-10-16 08:53:00
2:53 AM,57.0,51.1,81,29.83,10.0,WSW,9.2,-,N/A,,Clear,250,2012-10-16 09:53:00
3:53 AM,57.0,51.1,81,29.87,10.0,WSW,12.7,-,N/A,,Mostly Cloudy,250,2012-10-16 10:53:00
4:01 AM,57.2,51.8,82,29.87,10.0,West,6.9,-,N/A,,Overcast,270,2012-10-16 11:01:00
5:53 AM,54.0,48.9,83,29.95,10.0,SW,10.4,-,N/A,,Mostly Cloudy,220,2012-10-16 12:53:00
6:53 AM,53.1,48.9,86,30.00,10.0,SW,8.1,-,N/A,,Mostly Cloudy,230,2012-10-16 13:53:00
7:53 AM,54.0,48.9,83,30.04,10.0,West,6.9,-,0.00,Rain,Light Rain,260,2012-10-16 14:53:00
8:53 AM,54.0,50.0,86,30.09,10.0,West,9.2,-,0.00,,Overcast,260,2012-10-16 15:53:00
9:53 AM,57.0,48.9,74,30.13,10.0,WSW,9.2,-,N/A,,Clear,250,2012-10-16 16:53:00
10:53 AM,57.9,45.0,62,30.16,10.0,West,5.8,-,N/A,,Mostly Cloudy,260,2012-10-16 17:53:00
11:53 AM,61.0,45.0,56,30.18,10.0,WSW,5.8,-,N/A,,Overcast,240,2012-10-16 18:53:00
12:53 PM,63.0,41.0,45,30.20,10.0,NW,6.9,-,N/A,,Mostly Cloudy,320,2012-10-16 19:53:00
1:53 PM,61.0,39.9,46,30.20,10.0,WSW,9.2,-,N/A,,Mostly Cloudy,250,2012-10-16 20:53:00
2:53 PM,64.0,39.9,41,30.20,10.0,West,10.4,-,N/A,,Clear,260,2012-10-16 21:53:00
3:53 PM,63.0,41.0,45,30.22,10.0,West,6.9,-,N/A,,Mostly Cloudy,260,2012-10-16 22:53:00
4:53 PM,61.0,41.0,48,30.23,10.0,WSW,11.5,16.1,N/A,,Mostly Cloudy,250,2012-10-16 23:53:00
5:53 PM,59.0,41.0,51,30.25,10.0,WNW,8.1,-,N/A,,Mostly Cloudy,290,2012-10-17 00:53:00
6:53 PM,57.9,43.0,58,30.27,10.0,NW,4.6,-,N/A,,Overcast,320,2012-10-17 01:53:00
7:53 PM,55.0,44.1,67,30.29,10.0,NNW,6.9,-,N/A,,Overcast,330,2012-10-17 02:53:00
8:53 PM,54.0,44.1,69,30.29,10.0,WNW,4.6,-,N/A,,Overcast,300,2012-10-17 03:53:00
9:53 PM,50.0,44.1,80,30.29,10.0,WSW,3.5,-,N/A,,Clear,250,2012-10-17 04:53:00
10:53 PM,48.0,43.0,83,30.30,10.0,NNW,3.5,-,N/A,,Clear,340,2012-10-17 05:53:00
11:53 PM,46.0,42.1,86,30.32,10.0,WNW,3.5,-,N/A,,Clear,300,2012-10-17 06:53:00